CW0069 Weather Reports


Display with metric or nautical units.
time (UTC)temp
F
wind
direction
speed
MPH
gust
MPH
rain 1hr
in
rain 24hr
in
rain mn
in
humidity
%
barometer
mb
20260903155904 80 113 7.0 13.0 0.00 0.00 0.00 65 1011.7
20260903155404 80 122 12.0 16.0 0.00 0.00 0.00 66 1011.7
20260903154904 80 101 9.0 17.0 0.00 0.00 0.00 66 1011.6
20260903154405 80 112 4.0 13.0 0.00 0.00 0.00 66 1011.6
20260903153405 80 104 7.0 12.0 0.00 0.00 0.00 67 1011.6
20260903152905 80 108 9.0 16.0 0.00 0.00 0.00 67 1011.4
20260903152404 94 104 10.0 16.0 0.00 0.00 0.00 37 1011.4
20260903151404 94 120 6.0 13.0 0.00 0.00 0.00 37 1011.5
20260903150905 94 104 7.0 12.0 0.00 0.00 0.00 37 1011.5
20260903150404 94 106 7.0 14.0 0.00 0.00 0.00 37 1011.6
20260903145904 94 74 7.0 13.0 0.00 0.00 0.00 37 1011.7
20260903145404 94 110 7.0 13.0 0.00 0.00 0.00 37 1011.6
20260903144904 94 103 7.0 13.0 0.00 0.00 0.00 37 1011.6
20260903144404 94 100 8.0 14.0 0.00 0.00 0.00 37 1011.6
20260903143405 94 102 9.0 15.0 0.00 0.00 0.00 37 1011.5
20260903142905 94 108 7.0 13.0 0.00 0.00 0.00 37 1011.5
20260903142405 94 95 8.0 15.0 0.00 0.00 0.00 37 1011.5
20260903141904 94 108 8.0 12.0 0.00 0.00 0.00 37 1011.6
20260903141404 94 101 6.0 12.0 0.00 0.00 0.00 37 1011.6
20260903140904 94 106 6.0 14.0 0.00 0.00 0.00 37 1011.6
20260903140405 94 121 7.0 14.0 0.00 0.00 0.00 37 1011.7
20260903135905 94 98 6.0 13.0 0.00 0.00 0.00 37 1011.7
20260903135404 94 122 6.0 12.0 0.00 0.00 0.00 37 1011.6
20260903134904 94 108 6.0 14.0 0.00 0.00 0.00 37 1011.5
20260903133904 94 102 7.0 13.0 0.00 0.00 0.00 37 1011.4
20260903132904 94 108 6.0 12.0 0.00 0.00 0.00 37 1011.4
20260903131404 94 68 4.0 9.0 0.00 0.00 0.00 37 1011.7
20260903130904 94 0 5.0 12.0 0.00 0.00 0.00 37 1011.6
20260903130404 94 78 3.0 8.0 0.00 0.00 0.00 37 1011.6
20260903125904 94 0 3.0 8.0 0.00 0.00 0.00 37 1011.5
20260903125404 94 0 5.0 8.0 0.00 0.00 0.00 37 1011.3
20260903124904 94 0 2.0 9.0 0.00 0.00 0.00 37 1011.2
20260903124404 94 0 3.0 9.0 0.00 0.00 0.00 37 1011.1
20260903123904 94 0 5.0 12.0 0.00 0.00 0.00 37 1011.1
20260903123405 94 0 4.0 8.0 0.00 0.00 0.00 37 1011.1
20260903122905 94 0 3.0 6.0 0.00 0.00 0.00 37 1011.2
20260903121405 94 84 3.0 9.0 0.00 0.00 0.00 37 1011.1
20260903120905 94 83 5.0 10.0 0.00 0.00 0.00 37 1011.0
20260903120405 94 92 4.0 13.0 0.00 0.00 0.00 37 1011.0
20260903115904 94 96 5.0 12.0 0.00 0.00 0.00 37 1011.1
20260903115404 94 94 5.0 10.0 0.00 0.00 0.00 37 1011.0
20260903114904 94 95 4.0 8.0 0.00 0.00 0.00 37 1011.1
20260903114404 94 93 5.0 10.0 0.00 0.00 0.00 37 1010.9
20260903113904 94 110 6.0 10.0 0.00 0.00 0.00 37 1010.8
20260903113405 94 100 3.0 9.0 0.00 0.00 0.00 37 1010.7
20260903112405 94 110 6.0 9.0 0.00 0.00 0.00 37 1010.8
20260903111905 94 111 4.0 12.0 0.00 0.00 0.00 37 1010.8
20260903111404 94 107 5.0 9.0 0.00 0.00 0.00 37 1010.7
20260903110904 94 121 5.0 10.0 0.00 0.00 0.00 37 1010.8
20260903105905 94 105 2.0 7.0 0.00 0.00 0.00 37 1010.8
20260903105404 94 91 3.0 8.0 0.00 0.00 0.00 37 1010.7
20260903104905 94 94 3.0 7.0 0.00 0.00 0.00 37 1010.7
20260903104404 94 87 3.0 7.0 0.00 0.00 0.00 37 1010.6
20260903103904 94 105 2.0 7.0 0.00 0.00 0.00 37 1010.5
20260903103405 94 98 3.0 6.0 0.00 0.00 0.00 37 1010.5
20260903102405 94 79 2.0 5.0 0.00 0.00 0.00 37 1010.6
20260903101904 94 72 2.0 5.0 0.00 0.00 0.00 37 1010.5
20260903101404 94 58 0.0 3.0 0.00 0.00 0.00 37 1010.5
20260903100905 94 3 3.0 6.0 0.00 0.00 0.00 37 1010.5
20260903095904 94 0 3.0 6.0 0.00 0.00 0.00 37 1010.5
20260903095404 94 31 4.0 7.0 0.00 0.00 0.00 37 1010.5
20260903094404 94 14 2.0 3.0 0.00 0.00 0.00 37 1010.6
20260903093904 94 9 2.0 6.0 0.00 0.00 0.00 37 1010.7
20260903093404 94 13 2.0 5.0 0.00 0.00 0.00 37 1010.6
20260903092904 94 3 2.0 3.0 0.00 0.00 0.00 37 1010.6
20260903092405 94 0 1.0 5.0 0.00 0.00 0.00 37 1010.7
20260903091904 94 72 2.0 5.0 0.00 0.00 0.00 37 1010.7
20260903091404 94 69 3.0 3.0 0.00 0.00 0.00 37 1010.6
20260903090904 94 29 3.0 6.0 0.00 0.00 0.00 37 1010.5
20260903090404 94 72 2.0 6.0 0.00 0.00 0.00 37 1010.5
20260903085905 94 33 2.0 8.0 0.00 0.00 0.00 37 1010.6
20260903085404 94 49 5.0 10.0 0.00 0.00 0.00 37 1010.6
20260903084904 94 73 5.0 9.0 0.00 0.00 0.00 37 1010.5
20260903083904 94 91 2.0 7.0 0.00 0.00 0.00 37 1010.4
20260903083404 94 83 2.0 7.0 0.00 0.00 0.00 37 1010.3
20260903082904 94 63 2.0 7.0 0.00 0.00 0.00 37 1010.3
20260903082404 94 68 2.0 6.0 0.00 0.00 0.00 37 1010.2
20260903081904 94 115 2.0 5.0 0.00 0.00 0.00 37 1010.3
20260903081404 94 101 2.0 8.0 0.00 0.00 0.00 37 1010.3
20260903080905 94 117 3.0 7.0 0.00 0.00 0.00 37 1010.3
20260903080404 94 105 6.0 9.0 0.00 0.00 0.00 37 1010.3
20260903075904 94 87 5.0 10.0 0.00 0.00 0.00 37 1010.2
20260903074404 94 101 6.0 9.0 0.00 0.00 0.00 37 1010.1
20260903073906 94 62 3.0 8.0 0.00 0.00 0.00 37 1010.1
20260903073404 94 106 3.0 3.0 0.00 0.00 0.00 37 1010.1
20260903072904 94 98 2.0 3.0 0.00 0.00 0.00 37 1010.0
20260903072404 94 5 1.0 3.0 0.00 0.00 0.00 37 1010.0
20260903071904 94 16 2.0 3.0 0.00 0.00 0.00 37 1010.0
20260903070904 94 0 1.0 3.0 0.00 0.00 0.00 37 1010.2
20260903065904 94 0 2.0 5.0 0.00 0.00 0.00 37 1010.1
20260903065404 94 0 3.0 6.0 0.00 0.00 0.00 37 1010.1
20260903063905 94 65 4.0 9.0 0.00 0.00 0.00 37 1010.2
20260903063406 94 81 6.0 12.0 0.00 0.00 0.00 37 1010.2
20260903062904 94 36 6.0 13.0 0.00 0.00 0.00 37 1010.2
20260903062404 94 55 6.0 10.0 0.00 0.00 0.00 37 1010.0
20260903061904 94 48 6.0 12.0 0.00 0.00 0.00 37 1009.9
20260903061404 94 45 6.0 12.0 0.00 0.00 0.00 37 1009.9
20260903060904 94 43 6.0 10.0 0.00 0.00 0.00 37 1010.0
20260903060404 94 49 3.0 8.0 0.00 0.00 0.00 37 1010.1
20260903055404 94 15 5.0 9.0 0.00 0.00 0.00 37 1010.2
20260903054904 94 50 5.0 12.0 0.00 0.00 0.00 37 1010.3
20260903054405 94 51 4.0 10.0 0.00 0.00 0.00 37 1010.4
20260903053905 94 46 5.0 10.0 0.00 0.00 0.00 37 1010.4
20260903052905 94 40 5.0 12.0 0.00 0.00 0.00 37 1010.5
20260903052404 94 52 6.0 12.0 0.00 0.00 0.00 37 1010.6
20260903051905 94 51 5.0 9.0 0.00 0.00 0.00 37 1010.7
20260903050904 94 51 5.0 17.0 0.00 0.00 0.00 37 1010.8
20260903045904 94 52 5.0 12.0 0.00 0.00 0.00 37 1010.9
20260903045404 94 41 9.0 16.0 0.00 0.00 0.00 37 1010.9
20260903044904 94 49 7.0 17.0 0.00 0.00 0.00 37 1010.9
20260903044404 94 47 12.0 20.0 0.00 0.00 0.00 37 1010.9
20260903043904 94 38 6.0 12.0 0.00 0.00 0.00 37 1010.8
20260903042905 94 46 5.0 13.0 0.00 0.00 0.00 37 1010.8
20260903042405 94 43 5.0 13.0 0.00 0.00 0.00 37 1010.8
20260903041904 94 43 5.0 12.0 0.00 0.00 0.00 37 1010.8
20260903041404 94 43 5.0 13.0 0.00 0.00 0.00 37 1010.9
20260903040904 94 43 7.0 14.0 0.00 0.00 0.00 37 1010.8
20260903040404 94 41 6.0 15.0 0.00 0.00 0.00 37 1011.0
20260903035905 94 45 10.0 16.0 0.00 0.00 0.00 37 1011.1
20260903035405 94 45 6.0 15.0 0.00 0.00 0.00 37 1011.0
20260903034904 94 46 6.0 15.0 0.00 0.00 0.00 37 1011.0
20260903034404 94 49 5.0 15.0 0.00 0.00 0.00 37 1010.9
20260903033904 94 48 7.0 13.0 0.00 0.00 0.00 37 1010.9
20260903033405 94 58 5.0 12.0 0.00 0.00 0.00 37 1010.9
20260903032904 94 50 7.0 12.0 0.00 0.00 0.00 37 1010.8
20260903032404 94 64 3.0 9.0 0.00 0.00 0.00 37 1010.8
20260903031405 94 56 4.0 9.0 0.00 0.00 0.00 37 1010.9
20260903030404 94 59 3.0 6.0 0.00 0.00 0.00 37 1010.8
20260903025904 94 68 4.0 10.0 0.00 0.00 0.00 37 1010.8
20260903025405 94 63 5.0 10.0 0.00 0.00 0.00 37 1010.8
20260903024405 94 63 7.0 13.0 0.00 0.00 0.00 37 1010.7
20260903023905 94 59 7.0 15.0 0.00 0.00 0.00 37 1010.7
20260903023404 94 59 7.0 14.0 0.00 0.00 0.00 37 1010.7
20260903022905 94 61 6.0 13.0 0.00 0.00 0.00 37 1010.7
20260903022405 94 71 6.0 15.0 0.00 0.00 0.00 37 1010.6
20260903021904 94 79 7.0 15.0 0.00 0.00 0.00 37 1010.6
20260903020905 94 70 7.0 15.0 0.00 0.00 0.00 37 1010.5
20260903015905 94 67 5.0 12.0 0.00 0.00 0.00 37 1010.3
20260903015405 94 56 6.0 16.0 0.00 0.00 0.00 37 1010.3
20260903014905 94 69 5.0 12.0 0.00 0.00 0.00 37 1010.2
20260903014405 94 74 5.0 16.0 0.00 0.00 0.00 37 1010.1
20260903013404 94 55 5.0 12.0 0.00 0.00 0.00 37 1009.9
20260903012904 94 89 7.0 15.0 0.00 0.00 0.00 37 1009.8
20260903012404 94 59 7.0 14.0 0.00 0.00 0.00 37 1009.7
20260903011404 94 75 5.0 12.0 0.00 0.00 0.00 37 1009.5
20260903010405 94 59 6.0 12.0 0.00 0.00 0.00 37 1009.4
20260903005904 94 71 5.0 12.0 0.00 0.00 0.00 37 1009.4
20260903005404 94 76 7.0 15.0 0.00 0.00 0.00 37 1009.4
20260903004904 94 82 6.0 12.0 0.00 0.00 0.00 37 1009.3
20260903004404 94 57 5.0 12.0 0.00 0.00 0.00 37 1009.3
20260903003905 94 58 6.0 12.0 0.00 0.00 0.00 37 1009.2
20260903003404 94 51 7.0 12.0 0.00 0.00 0.00 37 1009.2
20260903002904 94 56 7.0 15.0 0.00 0.00 0.00 37 1009.0
20260903002404 94 66 7.0 15.0 0.00 0.00 0.00 37 1009.0
20260903001404 94 43 5.0 12.0 0.00 0.00 0.00 37 1009.0
20260902235904 94 48 7.0 13.0 0.00 0.00 0.00 37 1008.9
20260902235405 94 37 7.0 14.0 0.00 0.00 0.00 37 1008.8
20260902234904 94 54 8.0 17.0 0.00 0.00 0.00 37 1008.8
20260902234404 94 45 7.0 15.0 0.00 0.00 0.00 37 1008.8
20260902233904 94 53 7.0 15.0 0.00 0.00 0.00 37 1008.7
20260902233404 94 54 9.0 16.0 0.00 0.00 0.00 37 1008.6
20260902232404 95 54 5.0 16.0 0.00 0.00 0.00 37 1008.6
20260902231904 95 33 8.0 12.0 0.00 0.00 0.00 36 1008.6
20260902231404 95 68 5.0 13.0 0.00 0.00 0.00 36 1008.7
20260902230904 95 41 7.0 15.0 0.00 0.00 0.00 36 1008.6
20260902230404 95 53 9.0 13.0 0.00 0.00 0.00 36 1008.6
20260902225404 96 45 9.0 15.0 0.00 0.00 0.00 35 1008.6
20260902224904 97 57 7.0 16.0 0.00 0.00 0.00 35 1008.6
20260902223905 97 28 10.0 16.0 0.00 0.00 0.00 34 1008.4
20260902223404 97 43 9.0 17.0 0.00 0.00 0.00 34 1008.5
20260902222904 98 32 6.0 15.0 0.00 0.00 0.00 34 1008.5
20260902221905 98 40 7.0 15.0 0.00 0.00 0.00 34 1008.4
20260902221404 99 38 10.0 17.0 0.00 0.00 0.00 34 1008.4
20260902220906 98 41 8.0 16.0 0.00 0.00 0.00 35 1008.5
20260902220404 98 52 6.0 10.0 0.00 0.00 0.00 35 1008.4
20260902215905 98 44 8.0 14.0 0.00 0.00 0.00 34 1008.5
20260902215404 98 51 6.0 12.0 0.00 0.00 0.00 33 1008.5
20260902214905 99 42 7.0 16.0 0.00 0.00 0.00 33 1008.6
20260902214404 100 46 9.0 18.0 0.00 0.00 0.00 32 1008.6
20260902213904 99 58 6.0 12.0 0.00 0.00 0.00 33 1008.6
20260902213404 99 64 5.0 10.0 0.00 0.00 0.00 32 1008.6
20260902212904 99 50 5.0 14.0 0.00 0.00 0.00 33 1008.8
20260902212404 99 2 8.0 15.0 0.00 0.00 0.00 31 1008.9
20260902210905 99 49 4.0 12.0 0.00 0.00 0.00 31 1008.9
20260902210404 99 7 8.0 13.0 0.00 0.00 0.00 32 1009.0
20260902205905 99 34 6.0 12.0 0.00 0.00 0.00 32 1009.1
20260902205405 99 43 8.0 14.0 0.00 0.00 0.00 33 1009.1
20260902204904 99 34 5.0 9.0 0.00 0.00 0.00 34 1009.0
20260902204404 99 33 6.0 10.0 0.00 0.00 0.00 32 1009.2
20260902203905 99 25 6.0 13.0 0.00 0.00 0.00 33 1009.3
20260902203404 99 12 5.0 12.0 0.00 0.00 0.00 34 1009.2
20260902202905 99 38 9.0 13.0 0.00 0.00 0.00 31 1009.3
20260902202404 99 20 6.0 12.0 0.00 0.00 0.00 34 1009.5
20260902201904 99 337 7.0 13.0 0.00 0.00 0.00 33 1009.6
20260902201404 99 0 3.0 15.0 0.00 0.00 0.00 33 1009.5
20260902200906 99 26 9.0 20.0 0.00 0.00 0.00 33 1009.6
20260902200405 99 56 3.0 12.0 0.00 0.00 0.00 32 1009.8
20260902194904 99 43 7.0 14.0 0.00 0.00 0.00 33 1010.1
20260902194404 99 22 10.0 15.0 0.00 0.00 0.00 32 1010.2
20260902193905 99 70 5.0 12.0 0.00 0.00 0.00 33 1010.3
20260902193404 99 37 2.0 9.0 0.00 0.00 0.00 32 1010.3
20260902192904 99 10 5.0 15.0 0.00 0.00 0.00 33 1010.3
20260902192404 99 19 9.0 15.0 0.00 0.00 0.00 34 1010.4
20260902191404 99 14 6.0 15.0 0.00 0.00 0.00 33 1010.6
20260902190905 99 18 7.0 14.0 0.00 0.00 0.00 34 1010.6
20260902190404 99 310 4.0 8.0 0.00 0.00 0.00 34 1010.6
20260902185903 99 7 6.0 12.0 0.00 0.00 0.00 35 1010.9
20260902185404 99 344 4.0 12.0 0.00 0.00 0.00 35 1010.9
20260902184904 99 342 3.0 10.0 0.00 0.00 0.00 35 1011.0
20260902184404 98 2 5.0 12.0 0.00 0.00 0.00 36 1010.9
20260902183904 98 73 3.0 10.0 0.00 0.00 0.00 35 1011.1
20260902183404 98 68 3.0 12.0 0.00 0.00 0.00 33 1011.2
20260902182905 97 63 8.0 13.0 0.00 0.00 0.00 34 1011.3
20260902181904 97 356 5.0 12.0 0.00 0.00 0.00 34 1011.5
20260902181406 97 29 6.0 12.0 0.00 0.00 0.00 34 1011.7
20260902180904 97 9 3.0 9.0 0.00 0.00 0.00 36 1011.8
20260902180404 97 359 4.0 12.0 0.00 0.00 0.00 36 1011.9
20260902175904 97 339 5.0 10.0 0.00 0.00 0.00 36 1012.0
20260902175404 97 13 9.0 16.0 0.00 0.00 0.00 36 1012.2
20260902174904 96 28 5.0 12.0 0.00 0.00 0.00 36 1012.3
20260902174404 96 17 6.0 13.0 0.00 0.00 0.00 37 1012.4
20260902173405 96 76 3.0 10.0 0.00 0.00 0.00 38 1012.4
20260902172904 96 33 6.0 13.0 0.00 0.00 0.00 38 1012.6
20260902172404 95 19 5.0 10.0 0.00 0.00 0.00 40 1012.7
20260902171905 95 27 3.0 7.0 0.00 0.00 0.00 39 1012.7
20260902170904 95 25 7.0 12.0 0.00 0.00 0.00 42 1012.9
20260902165904 94 84 3.0 10.0 0.00 0.00 0.00 43 1013.1
20260902164905 93 64 2.0 12.0 0.00 0.00 0.00 43 1013.2
20260902163904 92 51 4.0 7.0 0.00 0.00 0.00 45 1013.3
20260902162403 92 30 6.0 10.0 0.00 0.00 0.00 46 1013.5
20260902161904 92 24 4.0 9.0 0.00 0.00 0.00 46 1013.5
20260902161404 92 27 3.0 10.0 0.00 0.00 0.00 48 1013.5
20260902160904 91 347 2.0 9.0 0.00 0.00 0.00 47 1013.5
20260902160404 91 325 1.0 8.0 0.00 0.00 0.00 49 1013.6